TimeCDT,TemperatureF,Dew PointF,Humidity,Sea Level PressureIn,VisibilityMPH,Wind Direction,Wind SpeedMPH,Gust SpeedMPH,PrecipitationIn,Events,Conditions,WindDirDegrees,DateUTC
12:53 AM,37.9,35.1,89,30.04,10.0,Calm,Calm,-,N/A,,Clear,0,2012-10-09 05:53:00
1:53 AM,37.9,35.1,89,30.02,10.0,Calm,Calm,-,N/A,,Clear,0,2012-10-09 06:53:00
3:53 AM,35.1,34.0,96,29.99,10.0,Calm,Calm,-,N/A,,Clear,0,2012-10-09 08:53:00
4:53 AM,33.1,32.0,96,29.98,10.0,Calm,Calm,-,N/A,,Clear,0,2012-10-09 09:53:00
5:53 AM,35.1,34.0,96,29.97,10.0,Calm,Calm,-,N/A,,Clear,0,2012-10-09 10:53:00
6:53 AM,41.0,39.0,93,29.96,10.0,SSE,4.6,-,N/A,,Clear,160,2012-10-09 11:53:00
7:53 AM,44.1,41.0,89,29.96,10.0,SSE,6.9,-,N/A,,Clear,150,2012-10-09 12:53:00
8:53 AM,51.1,44.1,77,29.96,10.0,SSE,9.2,17.3,N/A,,Clear,160,2012-10-09 13:53:00
9:53 AM,57.9,46.0,65,29.95,10.0,SSE,11.5,18.4,N/A,,Clear,160,2012-10-09 14:53:00
10:53 AM,63.0,48.0,58,29.93,10.0,South,11.5,24.2,N/A,,Clear,180,2012-10-09 15:53:00
11:53 AM,68.0,50.0,52,29.91,10.0,SSE,12.7,21.9,N/A,,Scattered Clouds,160,2012-10-09 16:53:00
12:53 PM,66.0,51.1,59,29.89,10.0,SSW,13.8,24.2,N/A,,Overcast,200,2012-10-09 17:53:00
1:51 PM,64.4,51.8,64,29.90,10.0,SSW,12.7,-,N/A,,Overcast,200,2012-10-09 18:51:00
1:53 PM,64.0,52.0,65,29.89,10.0,SSW,12.7,19.6,N/A,,Overcast,200,2012-10-09 18:53:00
2:53 PM,64.0,52.0,65,29.90,10.0,South,4.6,-,N/A,,Overcast,190,2012-10-09 19:53:00
3:33 PM,64.4,53.6,68,29.90,10.0,South,6.9,-,N/A,,Overcast,170,2012-10-09 20:33:00
3:53 PM,66.0,53.1,63,29.90,10.0,SSW,6.9,-,N/A,,Overcast,200,2012-10-09 20:53:00
4:53 PM,66.0,53.1,63,29.91,10.0,Calm,Calm,-,N/A,,Overcast,0,2012-10-09 21:53:00
5:53 PM,64.9,53.1,65,29.93,10.0,SSE,3.5,-,N/A,,Overcast,160,2012-10-09 22:53:00
6:53 PM,63.0,53.1,70,29.95,10.0,Calm,Calm,-,N/A,,Overcast,0,2012-10-09 23:53:00
7:53 PM,55.0,51.1,86,29.99,10.0,Calm,Calm,-,N/A,,Mostly Cloudy,0,2012-10-10 00:53:00
8:53 PM,51.1,48.9,92,30.01,10.0,Calm,Calm,-,N/A,,Mostly Cloudy,0,2012-10-10 01:53:00
9:53 PM,59.0,50.0,72,30.06,10.0,North,4.6,-,N/A,,Overcast,350,2012-10-10 02:53:00
10:53 PM,57.9,43.0,58,30.09,10.0,North,9.2,-,N/A,,Overcast,10,2012-10-10 03:53:00
11:53 PM,54.0,43.0,66,30.12,10.0,Calm,Calm,-,N/A,,Mostly Cloudy,0,2012-10-10 04:53:00